This demonstration page uses our WeatherBlox Daily Observations layout. Learn more.

Hourly Observations for November 29, 2016

Temp ( °F °C ) Dew Point ( °F °C ) Humidity (%) Winds ( mph kmh ) Pressure ( in mb ) Visibility ( mi km ) Precip ( " mm )
12:54 am 00:54 Clear 35 1.7 27 -2.8 72 72 WSW 3 6 29.34 994 10 16.0934 0 0
1:54 am 01:54 Clear 32 0 26 -3.3 79 79 S 3 6 29.35 994 10 16.0934 0 0
2:54 am 02:54 Clear 30 -1.1 25 -3.9 82 82 SSE 6 9 29.36 994 10 16.0934 0 0
3:54 am 03:54 Clear 32 0 26 -3.3 79 79 WSW 3 6 29.38 995 10 16.0934 0 0
4:54 am 04:54 Clear 35 1.7 28 -2.2 76 76 W 3 6 29.42 996 10 16.0934 0 0
5:54 am 05:54 Clear 33 0.6 27 -2.8 78 78 W 5 7 29.45 997 10 16.0934 0 0
6:54 am 06:54 Clear 33 0.6 26 -3.3 75 75 WSW 8 13 29.47 998 10 16.0934 0 0
7:54 am 07:54 Sunny 32 0 25 -3.9 75 75 WSW 8 13 29.48 998 10 16.0934 0 0
8:54 am 08:54 Sunny 36 2.2 26 -3.3 67 67 W 10 17 29.51 999 10 16.0934 0 0
9:54 am 09:54 Sunny 39 3.9 25 -3.9 57 57 WNW 14 22 29.52 1000 10 16.0934 0 0
10:54 am 10:54 Mostly Sunny 41 5 25 -3.9 53 53 WNW 20 31 29.54 1000 10 16.0934 0 0
11:54 am 11:54 Partly Cloudy 41 5 25 -3.9 53 53 WNW 20 31 29.54 1000 10 16.0934 0 0
12:54 pm 12:54 Mostly Cloudy 43 6.1 24 -4.4 47 47 W 21 33 29.54 1001 10 16.0934 0 0
1:54 pm 13:54 Cloudy 42 5.6 26 -3.3 53 53 WNW 18 30 29.57 1001 10 16.0934 0 0
2:54 pm 14:54 Cloudy 41 5 25 -3.9 53 53 WNW 20 31 29.59 1002 10 16.0934 0 0
3:54 pm 15:54 Cloudy 41 5 25 -3.9 53 53 WNW 20 31 29.61 1003 10 16.0934 0 0
4:54 pm 16:54 Cloudy 40 4.4 26 -3.3 58 58 WNW 15 24 29.64 1004 10 16.0934 0 0
5:54 pm 17:54 Cloudy 39 3.9 26 -3.3 60 60 WNW 14 22 29.67 1005 10 16.0934 0 0
6:54 pm 18:54 Cloudy 39 3.9 26 -3.3 60 60 WNW 18 30 29.69 1006 10 16.0934 0 0
7:54 pm 19:54 Cloudy 38 3.3 26 -3.3 62 62 NW 14 22 29.72 1006 10 16.0934 0 0
8:54 pm 20:54 Cloudy 37 2.8 26 -3.3 65 65 WNW 16 26 29.72 1007 10 16.0934 0 0
9:35 pm 21:35 Cloudy 36 2.2 26 -3.3 67 67 NW 13 20 29.74 1007 10 16.0934 0 0
9:54 pm 21:54 Cloudy 36 2 27 -3 70 70 WNW 14 22 29.74 1007 10 16.0934 0 0
10:54 pm 22:54 Cloudy 37 2.8 27 -2.8 67 67 NW 12 19 29.74 1007 10 16.0934 0 0
11:54 pm 23:54 Cloudy 37 2.8 25 -3.9 62 62 NW 18 30 29.75 1008 10 16.0934 0 0

Powered by AerisWeather